Wind_Speed
10 9 8 7 5 4 2 2 2 3 4 6 8 10 10 10 10 11 10 9 10 9 8 8 9 8 7 6 5 4 3 3 3 3 4 4 4 5 5 5 4 5 5 5
12 10 7 7 6 5 3 2 1 3 5 7 8 9 10 11 10 10 10 9 8 8 8 8 8 8 7 6 5 6 4 4 4 3 4 4 5 5 5 5 5 5 5 5
12 10 9 8 7 7 5 4 3 4 6 8 10 10 11 11 11 10 10 9 8 8 8 9 8 7 6 6 5 6 5 3 3 4 4 5 5 5 5 5 5 6 6 5
14 12 11 9 8 8 6 6 6 6 7 8 10 12 12 13 11 11 9 8 8 8 8 8 9 10 9 7 6 6 5 4 4 4 5 5 6 6 6 6 6 6 6 6
14 12 11 11 9 9 8 8 8 8 9 10 11 12 11 12 11 11 9 9 7 7 8 9 9 10 10 8 7 7 6 5 6 5 6 6 7 8 8 8 8 8 8 8
14 14 12 11 10 11 11 11 10 10 11 12 11 12 11 11 10 9 9 9 7 7 8 9 9 9 9 9 8 8 8 7 7 6 7 7 8 9 9 8 8 9 9 9
15 15 14 13 12 12 13 13 13 13 13 13 12 12 11 11 10 10 9 9 8 8 9 9 8 8 9 9 9 8 8 8 8 8 8 8 9 9 10 10 10 9 9 10
17 15 15 14 13 13 13 14 15 16 15 14 13 12 12 10 11 11 11 10 9 9 8 7 8 9 10 10 10 8 8 9 9 10 9 10 10 10 11 11 11 11 11 10
18 16 15 16 15 15 16 17 16 18 17 15 14 14 13 12 12 11 12 11 10 9 8 9 10 10 11 11 11 11 10 10 11 11 11 11 11 12 12 12 12 12 12 12
20 18 18 17 18 19 18 18 19 19 19 19 16 15 15 13 13 13 12 12 12 11 10 10 11 12 12 13 13 13 13 13 13 14 14 13 13 13 14 14 14 14 14 13
22 21 20 20 21 21 20 19 20 19 19 19 18 16 15 15 15 15 15 13 12 12 12 12 12 12 14 15 14 14 14 14 15 15 16 15 15 15 15 15 14 14 15 15
24 24 23 23 22 23 22 21 20 21 20 19 20 20 18 17 18 18 17 16 16 14 15 15 14 15 15 15 15 15 15 15 16 17 17 17 17 17 17 17 16 15 15 16
25 26 25 24 24 25 24 23 22 23 22 23 23 22 21 20 19 19 19 19 19 16 17 17 17 17 17 16 16 16 16 17 18 18 19 18 18 18 18 17 17 17 17 18
27 28 28 27 26 26 26 25 25 25 25 24 25 25 24 23 21 21 21 21 19 17 18 19 19 19 17 17 18 18 18 19 19 20 20 20 20 20 18 18 18 18 19 19
30 30 29 29 28 27 28 26 25 26 25 26 25 26 26 25 24 24 23 22 20 20 20 21 21 20 19 18 19 20 20 21 21 21 20 20 21 21 20 20 19 20 20 20
31 30 30 30 29 29 29 27 26 26 26 28 29 29 27 27 26 26 25 23 23 22 22 22 21 22 21 20 21 20 21 22 22 22 22 21 21 21 21 21 22 22 22 22
31 30 30 30 29 30 29 27 28 29 28 29 30 30 29 28 27 27 26 25 26 25 25 24 25 24 23 22 23 22 21 22 22 23 23 22 22 22 22 23 23 24 24 24
30 31 31 31 30 32 29 28 29 29 29 29 29 29 29 30 29 28 27 26 26 27 27 27 26 26 25 25 24 23 23 23 23 23 24 24 24 23 24 24 24 24 26 26
31 31 31 32 33 32 31 29 28 29 29 29 29 29 29 29 29 28 27 27 27 28 29 29 28 27 27 27 26 25 25 25 25 25 24 25 25 25 25 25 26 26 27 27
30 31 31 31 33 33 29 26 25 26 28 28 28 28 29 29 28 28 29 30 29 28 28 30 29 29 29 28 28 27 27 27 27 27 26 26 26 27 27 28 28 28 28 28
31 31 30 30 31 30 28 25 25 27 27 27 28 28 27 27 27 29 30 30 30 30 30 29 29 30 30 30 30 30 30 29 28 29 28 27 27 27 28 28 29 29 29 29
31 31 30 29 29 27 26 26 26 27 26 26 27 27 27 27 28 29 29 30 30 30 29 30 30 30 30 30 30 30 30 30 30 30 31 29 28 28 28 29 30 30 31 31
30 31 30 29 29 27 25 25 26 27 26 26 27 27 27 27 29 29 29 30 31 30 29 30 31 31 31 31 31 31 31 32 32 32 32 31 29 29 30 30 30 30 30 31
31 31 29 28 27 27 25 26 26 27 27 26 26 27 26 27 28 29 29 29 29 29 29 29 30 31 31 30 31 31 32 32 32 33 34 32 31 31 31 31 31 31 31 32
31 32 31 30 30 28 27 28 28 27 27 28 28 27 28 28 28 29 28 28 28 28 28 28 29 29 29 30 31 31 31 32 32 33 33 33 31 30 31 31 31 31 32 32
32 32 32 31 30 30 29 27 27 27 26 26 27 29 29 29 28 28 28 29 29 29 28 28 28 29 29 30 31 31 32 32 32 33 34 33 32 31 31 31 31 32 33 33
Wind_Direction
196 197 182 177 187 195 181 131 52 7 336 336 342 341 342 341 343 352 358 359 2 11 16 23 24 28 31 28 26 28 47 42 38 40 33 22 11 358 355 355 355 351 348 342
204 203 197 197 207 222 215 200 262 291 297 307 312 318 327 332 336 342 345 352 357 8 12 16 16 16 16 18 18 20 32 37 28 21 13 4 357 353 349 341 343 345 341 339
206 206 209 217 224 228 225 225 247 272 277 286 296 302 311 322 326 333 339 344 355 1 7 6 4 3 4 7 10 9 5 15 4 350 349 348 341 338 332 331 333 337 334 329
212 209 209 214 225 235 246 249 259 261 258 275 287 294 302 313 316 322 326 335 341 349 357 357 357 357 356 0 358 355 346 334 328 326 331 335 332 329 323 317 316 316 316 315
215 214 213 217 226 240 244 249 257 257 263 270 276 287 296 303 307 313 317 322 330 339 345 343 341 342 345 343 338 338 335 323 316 311 312 318 321 320 321 319 315 312 310 309
221 220 218 220 227 241 244 247 247 258 264 264 271 278 286 290 297 304 307 308 321 330 328 331 335 334 335 332 331 327 323 320 320 311 313 315 315 314 314 315 314 311 309 308
223 225 226 226 231 240 248 252 253 256 262 265 266 275 285 284 286 295 299 303 314 314 316 320 320 322 322 323 325 325 325 324 321 315 310 310 310 309 308 310 311 310 310 310
226 225 229 231 236 244 249 253 258 266 271 267 268 275 289 286 286 290 295 299 304 310 312 312 311 313 319 321 321 319 313 313 312 310 309 304 303 303 302 303 304 304 305 308
233 233 227 230 235 244 252 249 256 266 270 263 266 271 282 284 285 287 289 288 290 300 304 306 311 314 315 316 315 310 306 304 304 302 300 301 299 300 297 298 299 299 300 300
236 235 222 224 232 239 248 251 253 259 264 263 263 270 281 289 289 285 280 282 278 284 298 302 306 309 308 310 309 306 302 301 299 299 300 303 302 298 295 295 294 294 295 296
238 239 230 228 231 235 241 245 251 258 260 261 263 270 279 287 289 288 283 285 290 290 296 301 303 306 304 304 302 301 298 297 298 298 298 298 298 296 293 293 290 289 290 294
238 243 235 231 235 239 242 247 252 253 255 258 264 270 275 280 284 286 285 285 291 294 292 295 298 299 301 299 296 296 295 295 295 294 294 294 294 294 292 293 290 290 291 294
238 243 243 235 236 240 244 245 250 254 256 257 263 268 272 275 279 282 284 288 290 289 287 290 291 292 295 295 292 292 292 293 293 291 291 291 291 292 290 289 288 288 290 292
241 245 247 243 241 243 246 248 250 252 255 258 260 265 266 272 277 280 283 283 282 283 284 285 285 285 288 289 290 290 289 289 289 290 289 288 288 289 288 287 288 288 288 290
241 246 249 247 244 245 248 249 249 252 257 260 261 263 268 272 276 279 282 279 278 281 284 283 279 283 282 285 287 289 289 289 287 287 286 285 284 284 283 284 285 287 290 292
240 244 247 248 246 245 247 248 249 249 253 257 261 262 264 267 271 275 278 279 282 281 281 282 281 282 283 285 285 284 286 287 287 286 284 283 282 282 282 282 283 285 287 289
240 242 244 246 247 246 245 244 247 249 253 259 262 264 263 266 270 274 276 278 283 280 280 281 281 282 283 283 283 281 285 287 287 286 284 283 283 283 283 282 282 283 284 286
238 241 243 245 247 249 250 247 249 252 254 258 262 263 265 267 269 272 274 276 278 280 279 281 282 282 284 286 285 285 285 285 284 284 284 283 281 281 281 280 281 283 284 284
239 242 245 247 247 251 253 254 253 254 255 258 261 263 265 266 268 271 275 276 277 278 280 282 282 282 281 283 283 284 284 285 284 283 283 283 283 282 281 280 281 282 281 283
237 241 245 248 248 250 253 254 256 256 256 258 261 264 267 268 269 271 273 276 276 277 279 280 281 281 280 281 280 281 282 281 282 283 283 282 281 281 281 281 281 281 281 282
236 240 244 247 249 250 252 251 253 254 256 259 262 266 268 270 273 273 274 277 276 275 278 279 279 280 279 280 280 281 282 279 280 281 282 282 282 282 281 281 281 281 281 282
235 238 240 243 247 251 256 256 254 257 258 260 264 267 269 269 272 274 275 279 280 280 279 279 279 279 281 281 280 280 281 279 278 279 280 282 282 282 281 280 280 280 281 282
234 237 241 245 249 252 256 258 260 261 261 262 265 268 271 273 275 276 278 279 281 282 281 279 279 279 280 281 280 280 280 280 278 278 279 280 281 282 281 281 280 281 281 282
235 237 240 245 248 250 252 253 258 261 263 264 266 268 270 273 275 278 280 281 283 285 284 281 279 279 280 281 281 282 282 281 280 281 280 279 279 280 282 282 282 281 281 281
236 238 240 243 247 250 251 254 256 262 264 265 267 269 272 275 276 277 279 281 283 283 284 282 281 282 281 281 283 283 283 283 283 284 285 282 279 278 280 281 281 281 281 281
234 236 239 243 248 251 254 254 256 261 265 267 270 271 271 273 275 276 278 280 281 282 282 282 282 282 282 283 284 283 284 284 284 286 284 284 282 281 281 280 280 281 280 279
Height
5921 5922 5923 5924 5924 5925 5925 5926 5926 5927 5926 5926 5925 5924 5924 5923 5921 5920 5919 5917 5916 5914 5913 5912 5911 5910 5908 5907 5907 5906 5906 5906 5905 5905 5904 5904 5904 5903 5902 5901 5900 5900 5899 5898
5920 5921 5922 5922 5922 5924 5924 5924 5925 5926 5925 5925 5924 5923 5923 5922 5921 5920 5918 5917 5916 5914 5913 5912 5911 5910 5908 5908 5907 5906 5905 5905 5905 5904 5904 5903 5903 5902 5901 5901 5900 5899 5898 5897
5917 5920 5920 5920 5920 5922 5922 5923 5924 5924 5924 5923 5923 5922 5922 5921 5919 5919 5917 5916 5915 5914 5913 5912 5911 5910 5908 5907 5906 5906 5905 5904 5904 5904 5903 5902 5902 5901 5901 5900 5899 5898 5897 5895
5914 5916 5917 5917 5918 5919 5921 5921 5922 5922 5922 5921 5922 5920 5920 5919 5918 5917 5916 5915 5915 5913 5912 5911 5910 5909 5908 5907 5906 5905 5904 5903 5903 5903 5902 5901 5900 5900 5899 5898 5897 5896 5895 5894
5912 5913 5914 5915 5916 5917 5918 5919 5920 5920 5920 5920 5919 5918 5918 5917 5916 5915 5915 5914 5913 5912 5911 5910 5910 5909 5908 5906 5905 5904 5903 5902 5902 5901 5901 5900 5899 5898 5897 5896 5895 5894 5893 5892
5909 5910 5910 5912 5914 5915 5916 5917 5917 5917 5917 5917 5917 5915 5915 5914 5914 5914 5913 5912 5911 5910 5909 5909 5908 5908 5907 5905 5904 5902 5902 5901 5900 5899 5899 5898 5897 5896 5895 5894 5893 5892 5891 5889
5905 5907 5908 5909 5910 5912 5913 5914 5914 5914 5914 5914 5914 5913 5913 5912 5912 5911 5910 5909 5909 5907 5907 5907 5906 5906 5905 5904 5902 5900 5900 5899 5898 5897 5896 5895 5895 5894 5893 5892 5891 5889 5888 5887
5901 5903 5905 5906 5907 5909 5910 5911 5911 5911 5911 5910 5910 5910 5911 5909 5909 5908 5908 5907 5906 5906 5905 5905 5904 5904 5903 5902 5900 5898 5898 5897 5896 5895 5894 5893 5892 5891 5890 5889 5888 5887 5885 5884
5897 5900 5902 5903 5904 5905 5905 5906 5907 5907 5906 5906 5906 5907 5907 5906 5905 5904 5904 5904 5903 5902 5902 5902 5902 5901 5900 5899 5898 5897 5896 5895 5894 5892 5891 5890 5889 5889 5888 5886 5885 5883 5882 5881
5892 5895 5897 5899 5901 5901 5902 5902 5903 5903 5902 5902 5902 5903 5903 5903 5902 5901 5901 5900 5899 5899 5899 5898 5898 5897 5896 5896 5895 5894 5893 5891 5890 5889 5888 5887 5886 5884 5883 5882 5881 5880 5879 5877
5887 5889 5892 5893 5894 5895 5897 5897 5898 5898 5898 5898 5898 5901 5899 5899 5899 5898 5897 5896 5896 5895 5895 5895 5894 5893 5893 5892 5891 5890 5889 5888 5886 5885 5884 5883 5882 5880 5878 5877 5876 5875 5874 5873
5881 5884 5885 5888 5889 5890 5890 5892 5893 5894 5894 5894 5893 5897 5894 5894 5894 5894 5893 5892 5892 5891 5891 5890 5890 5889 5889 5888 5886 5886 5885 5884 5882 5881 5879 5878 5877 5875 5874 5872 5872 5870 5869 5868
5876 5878 5880 5882 5885 5885 5885 5886 5887 5888 5888 5888 5888 5891 5889 5889 5889 5890 5889 5888 5887 5886 5886 5886 5885 5884 5883 5882 5881 5880 5880 5878 5877 5876 5874 5873 5872 5870 5869 5868 5867 5865 5864 5863
5869 5871 5873 5875 5877 5878 5880 5881 5882 5882 5882 5882 5882 5883 5883 5883 5884 5884 5884 5883 5883 5882 5882 5881 5880 5879 5878 5877 5876 5875 5874 5873 5871 5870 5868 5867 5866 5864 5862 5862 5861 5860 5858 5857
5862 5864 5866 5867 5870 5872 5873 5874 5875 5876 5875 5876 5876 5877 5877 5877 5878 5878 5878 5877 5877 5877 5876 5875 5874 5872 5871 5871 5870 5869 5868 5866 5865 5863 5862 5861 5860 5858 5857 5856 5855 5854 5853 5852
5854 5857 5858 5860 5862 5864 5865 5867 5868 5869 5869 5869 5869 5870 5871 5871 5871 5871 5872 5871 5871 5870 5870 5869 5868 5867 5866 5865 5864 5863 5861 5860 5858 5857 5856 5855 5854 5853 5852 5851 5849 5848 5847 5846
5846 5849 5851 5853 5855 5856 5858 5861 5861 5861 5862 5862 5862 5864 5864 5864 5865 5865 5865 5864 5864 5864 5863 5862 5862 5860 5859 5857 5856 5855 5854 5853 5852 5850 5849 5848 5847 5846 5845 5844 5843 5842 5840 5839
5839 5841 5843 5845 5847 5848 5853 5853 5854 5854 5854 5855 5855 5856 5856 5857 5858 5858 5858 5858 5857 5857 5856 5856 5855 5854 5852 5850 5849 5848 5847 5846 5845 5844 5842 5840 5839 5838 5837 5836 5835 5834 5833 5832
5832 5833 5835 5837 5838 5840 5844 5845 5845 5846 5846 5847 5848 5848 5849 5850 5850 5851 5851 5851 5850 5849 5848 5848 5847 5846 5845 5844 5843 5841 5840 5839 5837 5836 5835 5833 5832 5831 5830 5828 5828 5827 5825 5824
5824 5826 5828 5829 5830 5832 5837 5838 5838 5839 5839 5840 5840 5841 5842 5843 5843 5844 5844 5843 5842 5842 5840 5839 5838 5838 5837 5836 5835 5834 5833 5831 5830 5829 5827 5826 5825 5823 5822 5821 5820 5818 5817 5815
5816 5818 5820 5822 5823 5825 5829 5831 5831 5832 5833 5833 5833 5834 5835 5835 5836 5836 5836 5835 5834 5834 5833 5832 5830 5829 5828 5828 5826 5825 5825 5823 5822 5820 5819 5817 5815 5814 5813 5812 5811 5809 5808 5806
5808 5810 5812 5815 5816 5820 5822 5823 5824 5825 5825 5826 5826 5827 5828 5828 5828 5827 5827 5826 5826 5825 5824 5823 5822 5821 5819 5818 5817 5816 5816 5814 5813 5811 5809 5807 5806 5805 5804 5803 5802 5800 5799 5797
5800 5804 5806 5808 5811 5813 5814 5815 5816 5817 5818 5819 5819 5819 5820 5820 5820 5820 5819 5818 5817 5816 5815 5814 5813 5812 5811 5809 5808 5807 5806 5804 5803 5802 5800 5799 5797 5796 5795 5794 5792 5791 5789 5788
5793 5795 5798 5801 5803 5805 5807 5808 5809 5810 5810 5811 5812 5812 5812 5812 5812 5811 5811 5810 5809 5808 5807 5805 5803 5802 5801 5800 5799 5797 5796 5795 5794 5793 5791 5789 5788 5786 5786 5784 5783 5782 5780 5779
5786 5788 5790 5793 5796 5798 5800 5801 5802 5802 5803 5803 5804 5804 5804 5804 5803 5803 5802 5801 5800 5799 5798 5796 5794 5793 5792 5791 5789 5788 5786 5785 5784 5783 5781 5779 5777 5777 5775 5774 5773 5772 5771 5769
5778 5780 5783 5785 5788 5790 5792 5793 5794 5795 5795 5796 5796 5796 5796 5795 5794 5794 5793 5792 5791 5790 5788 5787 5785 5784 5783 5781 5780 5778 5777 5775 5774 5773 5771 5769 5767 5766 5765 5764 5763 5762 5761 5759